| time (UTC) | temp C | wind direction | speed KPH | gust KPH | rain 1hr cm | rain 24hr cm | rain mn cm | humidity % | barometer mb |
| 20260504081523 | 8 | 360 | 6.4 | 14.5 | 0.00 | 0.00 | 0.00 | 71 | 1013.1 |
| 20260504044533 | 11 | 360 | 3.2 | 8.0 | 0.00 | 0.00 | 0.00 | 49 | 1012.7 |
| 20260504043024 | 11 | 360 | 3.2 | 8.0 | 0.00 | 0.00 | 0.00 | 48 | 1012.5 |
| 20260504041548 | 11 | 360 | 3.2 | 8.0 | 0.00 | 0.00 | 0.00 | 48 | 1012.3 |
| 20260504040103 | 11 | 360 | 4.8 | 8.0 | 0.00 | 0.00 | 0.00 | 48 | 1012.3 |
| 20260504034608 | 11 | 360 | 4.8 | 9.7 | 0.00 | 0.00 | 0.00 | 47 | 1012.2 |
| 20260504033043 | 11 | 360 | 3.2 | 9.7 | 0.00 | 0.00 | 0.00 | 47 | 1012.1 |
| 20260504031545 | 11 | 360 | 3.2 | 8.0 | 0.00 | 0.00 | 0.00 | 47 | 1012.1 |
| 20260504024538 | 11 | 360 | 1.6 | 8.0 | 0.00 | 0.00 | 0.00 | 46 | 1012.2 |
| 20260504023037 | 11 | 360 | 4.8 | 9.7 | 0.00 | 0.00 | 0.00 | 46 | 1012.2 |
| 20260504021536 | 11 | 360 | 4.8 | 9.7 | 0.00 | 0.00 | 0.00 | 46 | 1012.2 |
| 20260504020036 | 11 | 360 | 3.2 | 8.0 | 0.00 | 0.00 | 0.00 | 46 | 1012.1 |
| 20260504014535 | 11 | 360 | 1.6 | 6.4 | 0.00 | 0.00 | 0.00 | 46 | 1012.1 |
| 20260504013045 | 12 | 360 | 3.2 | 6.4 | 0.00 | 0.00 | 0.00 | 45 | 1011.8 |
| 20260504011533 | 12 | 360 | 3.2 | 6.4 | 0.00 | 0.00 | 0.00 | 44 | 1011.7 |
| 20260504010032 | 12 | 360 | 3.2 | 6.4 | 0.00 | 0.00 | 0.00 | 43 | 1011.5 |
| 20260504004530 | 12 | 360 | 3.2 | 6.4 | 0.00 | 0.00 | 0.00 | 43 | 1011.2 |
| 20260504003031 | 13 | 360 | 3.2 | 6.4 | 0.00 | 0.00 | 0.00 | 41 | 1011.1 |
| 20260504001528 | 13 | 360 | 1.6 | 6.4 | 0.00 | 0.00 | 0.00 | 39 | 1010.8 |
| 20260504000028 | 14 | 360 | 3.2 | 12.9 | 0.00 | 0.00 | 0.00 | 38 | 1010.8 |
| 20260503234527 | 15 | 360 | 8.0 | 19.3 | 0.00 | 0.00 | 0.00 | 36 | 1010.7 |
| 20260503233024 | 15 | 150 | 8.0 | 17.7 | 0.00 | 0.00 | 0.00 | 35 | 1010.6 |
| 20260503231524 | 15 | 144 | 6.4 | 16.1 | 0.00 | 0.00 | 0.00 | 35 | 1010.5 |
| 20260503230024 | 15 | 123 | 11.3 | 17.7 | 0.00 | 0.00 | 0.00 | 34 | 1010.5 |
| 20260503224525 | 15 | 185 | 8.0 | 24.1 | 0.00 | 0.00 | 0.00 | 34 | 1010.6 |
| 20260503224523 | 15 | 184 | 8.0 | 24.1 | 0.00 | 0.00 | 0.00 | 34 | 1010.6 |
| 20260503223053 | 16 | 135 | 12.9 | 20.9 | 0.00 | 0.00 | 0.00 | 33 | 1010.5 |
| 20260503221553 | 15 | 140 | 12.9 | 25.7 | 0.00 | 0.00 | 0.00 | 32 | 1010.6 |
| 20260503220049 | 15 | 134 | 12.9 | 29.0 | 0.00 | 0.00 | 0.00 | 32 | 1010.6 |
| 20260503214559 | 15 | 136 | 14.5 | 29.0 | 0.00 | 0.00 | 0.00 | 32 | 1010.6 |
| 20260503213049 | 15 | 143 | 12.9 | 30.6 | 0.00 | 0.00 | 0.00 | 32 | 1010.6 |
| 20260503211552 | 15 | 209 | 11.3 | 27.4 | 0.00 | 0.00 | 0.00 | 33 | 1010.6 |
| 20260503210043 | 15 | 153 | 19.3 | 27.4 | 0.00 | 0.00 | 0.00 | 33 | 1010.6 |
| 20260503204553 | 15 | 161 | 16.1 | 33.8 | 0.00 | 0.00 | 0.00 | 34 | 1010.6 |
| 20260503203047 | 15 | 94 | 8.0 | 25.7 | 0.00 | 0.00 | 0.00 | 34 | 1010.8 |
| 20260503201540 | 15 | 360 | 16.1 | 38.6 | 0.00 | 0.00 | 0.00 | 35 | 1011.0 |
| 20260503200009 | 14 | 360 | 19.3 | 32.2 | 0.00 | 0.00 | 0.00 | 35 | 1011.2 |
| 20260503194508 | 15 | 86 | 9.7 | 33.8 | 0.00 | 0.00 | 0.00 | 35 | 1011.1 |
| 20260503193041 | 14 | 184 | 12.9 | 29.0 | 0.00 | 0.00 | 0.00 | 36 | 1011.5 |
| 20260503191536 | 14 | 360 | 11.3 | 29.0 | 0.00 | 0.00 | 0.00 | 34 | 1011.7 |
| 20260503190044 | 15 | 360 | 11.3 | 24.1 | 0.00 | 0.00 | 0.00 | 33 | 1011.7 |
| 20260503184532 | 14 | 140 | 14.5 | 27.4 | 0.00 | 0.00 | 0.00 | 34 | 1011.8 |
| 20260503183032 | 14 | 360 | 17.7 | 30.6 | 0.00 | 0.00 | 0.00 | 34 | 1012.1 |
| 20260503181528 | 13 | 360 | 12.9 | 25.7 | 0.00 | 0.00 | 0.00 | 34 | 1012.1 |
| 20260503180036 | 13 | 360 | 17.7 | 37.0 | 0.00 | 0.00 | 0.00 | 32 | 1012.1 |
| 20260503174522 | 13 | 360 | 11.3 | 24.1 | 0.00 | 0.00 | 0.00 | 36 | 1012.2 |
| 20260503173018 | 13 | 214 | 6.4 | 25.7 | 0.00 | 0.00 | 0.00 | 36 | 1012.3 |
| 20260503171531 | 12 | 167 | 12.9 | 29.0 | 0.00 | 0.00 | 0.00 | 38 | 1012.5 |